This is the latest recevied weather packets stored in our database for station/object W4TJP. If no packets are shown the sender has not sent any weather packets the latest 10 day(s).
| Time | Temp. | Humidity | Pressure | Rain* | Wind** | Luminosity | Snow |
|---|---|---|---|---|---|---|---|
| 1777961322 | 11.67° C | 86% | 1012.6 hPa | 0 mm | - | 0 W/m² | - |
| 1777961019 | 11.67° C | 85% | 1012.4 hPa | 0 mm | - | 0 W/m² | - |
| 1777960715 | 11.67° C | 84% | 1012.5 hPa | 0 mm | - | 0 W/m² | - |
| 1777960411 | 12.22° C | 83% | 1012.6 hPa | 0 mm | - | 0 W/m² | - |
| 1777960108 | 12.22° C | 81% | 1012.5 hPa | 0 mm | - | 0 W/m² | - |
| 1777959805 | 12.78° C | 81% | 1012.6 hPa | 0 mm | - | 0 W/m² | - |
| 1777959504 | 12.78° C | 81% | 1012.7 hPa | 0 mm | - | 0 W/m² | - |
| 1777959200 | 12.78° C | 80% | 1012.6 hPa | 0 mm | - | 0 W/m² | - |
| 1777958897 | 12.78° C | 80% | 1012.6 hPa | 0 mm | - | 0 W/m² | - |
| 1777958594 | 13.33° C | 80% | 1012.6 hPa | 0 mm | - | 0 W/m² | - |
| 1777958291 | 13.33° C | 79% | 1012.5 hPa | 0 mm | - | 0 W/m² | - |
| 1777957989 | 13.33° C | 78% | 1012.4 hPa | 0 mm | - | 0 W/m² | - |
| 1777957686 | 13.89° C | 78% | 1012.4 hPa | 0 mm | - | 0 W/m² | - |
| 1777957385 | 13.89° C | 76% | 1012.6 hPa | 0 mm | - | 0 W/m² | - |
| 1777957080 | 13.89° C | 78% | 1012.6 hPa | 0 mm | - | 0 W/m² | - |
| 1777956778 | 14.44° C | 77% | 1012.4 hPa | 0 mm | - | 0 W/m² | - |
| 1777956474 | 14.44° C | 75% | 1012.6 hPa | 0 mm | - | 0 W/m² | - |
| 1777956171 | 13.89° C | 75% | 1012.4 hPa | 0 mm | - | 0 W/m² | - |
| 1777955868 | 13.89° C | 77% | 1012.3 hPa | 0 mm | - | 0 W/m² | - |
| 1777955564 | 13.89° C | 76% | 1012.3 hPa | 0 mm | - | 0 W/m² | - |
| 1777955260 | 14.44° C | 75% | 1012.1 hPa | 0 mm | - | 0 W/m² | - |
| 1777954958 | 13.89° C | 74% | 1012.3 hPa | 0 mm | - | 0 W/m² | - |
| 1777954654 | 13.89° C | 75% | 1012.3 hPa | 0 mm | - | 0 W/m² | - |
| 1777954351 | 14.44° C | 75% | 1012.2 hPa | 0 mm | - | 0 W/m² | - |
| 1777954049 | 14.44° C | 73% | 1012.1 hPa | 0 mm | - | 0 W/m² | - |
* Rain latest hour (hover to see other rain measurements)
** Current wind speed in m/s (hover to see current wind gust speed)